Content
SEND FEEDBACK

Daily
Averages
Monthly
Summary
United States of America

MANGILAO, GUAM


Home > North America > United States > Guam
Elevation: 60 feet     Latitude: 13 27N     Longitude: 144 49E

WEATHER
 
SELECT A DAY
Number of Records: 356,513;   Date Range: 1/1/95 - 12/18/14
 
SHARE

PRINT THIS DATA

[ ← Previous Day ]
WEATHER ALMANAC - NOVEMBER 22, 2013
[ Next Day → ]
[ °C ]   °F
Weather ElementAverageHighLow
Temperature81.2 °F84.7 °F (11:58 am)77 °F (2:08 am)
Dewpoint76 °F78.8 °F (12:50 pm)71.6 °F (2:23 am)
Humidity84.6 %100 % (9:43 pm)74 % (10:33 am)
Barometer29.86 in29.91 in (9:03 am)29.79 in (1:58 pm)
Wind Speed16.8 mph20.7 mph (1:58 am)
Wind Gust29.9 mph (2:08 am)
Weather ElementAverage
Visibility10 mi
Wind DirectionENE (58 °)

Weather ElementTotal
Precipitation0.01 in
Cooling Degree Days15.9 (Base 65)
Growing Degree Days30.9 (Base 50)
Averaged from 80 records on November 22, 2013
WEATHER CONDITIONS BREAKOUT
WIND DIRECTION BREAKOUT
WEATHER BY HOUR - NOVEMBER 22, 2013
[ °C ]   °F
Local TimeTemperatureDewpointHumidityBarometerVisibilityWind DirectionWind SpeedGust SpeedPrecipitationEventsConditions
1:45 AM78.8 °F75.2 °F89 %29.87 in10.0 miNE (50°)18.4 mph25.3 mphRainLight Rain
1:54 AM78.8 °F75.2 °F89 %29.87 in10.0 miENE (60°)12.7 mph25.3 mphMostly Cloudy
1:58 AM78.3 °F75.7 °F92 %29.84 in10.0 miNE (50°)20.7 mph27.6 mph0.00 inMostly Cloudy
2:08 AM77.0 °F73.4 °F89 %29.87 in10.0 miENE (60°)20.7 mph29.9 mphMostly Cloudy
2:13 AM77.0 °F73.4 °F89 %29.87 in10.0 miNE (50°)19.6 mph28.8 mphRainLight Rain
2:18 AM77.0 °F73.4 °F89 %29.87 in10.0 miENE (60°)17.3 mphLight Drizzle
2:23 AM77.0 °F71.6 °F83 %29.87 in10.0 miENE (60°)16.1 mphMostly Cloudy
2:26 AM77.0 °F71.6 °F83 %29.86 in10.0 miENE (60°)12.7 mphLight Drizzle
2:35 AM77.0 °F71.6 °F83 %29.86 in10.0 miENE (60°)10.4 mphMostly Cloudy
2:58 AM78.4 °F75.6 °F91 %29.82 in10.0 miNE (50°)17.3 mph19.6 mph0.01 inMostly Cloudy
3:58 AM78.6 °F73.6 °F84 %29.82 in10.0 miENE (60°)15.0 mphClear
4:58 AM78.6 °F73.2 °F83 %29.82 in10.0 miENE (70°)16.1 mph21.9 mphClear
5:58 AM78.8 °F74.3 °F86 %29.83 in10.0 miENE (60°)12.7 mphPartly Cloudy
6:58 AM79.5 °F75.4 °F87 %29.86 in10.0 miENE (60°)16.1 mphPartly Cloudy
7:33 AM80.6 °F75.2 °F84 %29.90 in10.0 miENE (60°)18.4 mphMostly Cloudy
7:38 AM80.6 °F75.2 °F84 %29.90 in10.0 miENE (60°)16.1 mphMostly Cloudy
7:43 AM80.6 °F75.2 °F84 %29.90 in10.0 miENE (60°)16.1 mphMostly Cloudy
7:48 AM82.4 °F75.2 °F79 %29.90 in10.0 miENE (60°)18.4 mphMostly Cloudy
7:53 AM82.4 °F75.2 °F79 %29.90 in10.0 miNE (50°)18.4 mphMostly Cloudy
7:58 AM82.4 °F75.2 °F79 %29.87 in10.0 miNE (50°)17.3 mphMostly Cloudy
8:13 AM82.4 °F75.2 °F79 %29.90 in10.0 miNE (50°)18.4 mphMostly Cloudy
8:18 AM82.4 °F75.2 °F79 %29.90 in10.0 miNE (50°)16.1 mphScattered Clouds
8:23 AM82.4 °F75.2 °F79 %29.90 in10.0 miNE (50°)18.4 mphMostly Cloudy
8:58 AM82.2 °F76.3 °F82 %29.88 in10.0 miNE (50°)16.1 mphMostly Cloudy
9:03 AM82.4 °F77.0 °F84 %29.91 in10.0 miENE (60°)17.3 mphScattered Clouds
9:33 AM82.4 °F75.2 °F79 %29.91 in10.0 miENE (60°)16.1 mphMostly Cloudy
9:38 AM82.4 °F75.2 °F79 %29.91 in10.0 miENE (60°)18.4 mphScattered Clouds
9:58 AM81.9 °F75.0 °F80 %29.87 in10.0 miNE (50°)16.1 mphMostly Cloudy
10:08 AM82.4 °F75.2 °F79 %29.90 in10.0 miENE (60°)17.3 mphOvercast
10:13 AM82.4 °F75.2 °F79 %29.90 in10.0 miENE (60°)17.3 mphMostly Cloudy
10:18 AM82.4 °F75.2 °F79 %29.90 in10.0 miNE (50°)17.3 mphMostly Cloudy
10:33 AM84.2 °F75.2 °F74 %29.90 in10.0 miNE (50°)19.6 mphMostly Cloudy
10:38 AM84.2 °F75.2 °F74 %29.89 in10.0 miENE (60°)17.3 mphScattered Clouds
10:58 AM84.2 °F76.3 °F77 %29.86 in10.0 miNE (50°)17.3 mphScattered Clouds
11:08 AM84.2 °F77.0 °F79 %29.88 in10.0 miNE (50°)19.6 mphMostly Cloudy
11:18 AM84.2 °F75.2 °F74 %29.87 in10.0 miNE (50°)16.1 mphScattered Clouds
11:58 AM84.7 °F76.6 °F77 %29.83 in10.0 miNE (40°)16.1 mphScattered Clouds
12:23 PM84.2 °F77.0 °F79 %29.85 in10.0 miNE (40°)18.4 mphMostly Cloudy
12:33 PM84.2 °F77.0 °F79 %29.85 in10.0 miNE (40°)18.4 mphMostly Cloudy
12:43 PM84.2 °F77.0 °F79 %29.84 in10.0 miNE (50°)20.7 mphMostly Cloudy
12:45 PM82.4 °F77.0 °F84 %29.85 in9.0 miNE (50°)19.6 mphRainLight Rain
12:50 PM82.4 °F78.8 °F89 %29.84 in9.0 miENE (60°)16.1 mphRainLight Rain
12:55 PM82.4 °F77.0 °F84 %29.84 in10.0 miNE (50°)18.4 mphRainLight Rain
12:56 PM82.4 °F77.0 °F84 %29.84 in10.0 miENE (60°)17.3 mphScattered Clouds
12:58 PM82.4 °F77.0 °F84 %29.81 in10.0 miNE (50°)16.1 mph0.00 inScattered Clouds
1:03 PM82.4 °F77.0 °F84 %29.84 in10.0 miENE (60°)18.4 mphMostly Cloudy
1:08 PM84.2 °F77.0 °F79 %29.84 in10.0 miNE (50°)18.4 mphMostly Cloudy
1:58 PM84.4 °F77.4 °F79 %29.79 in10.0 miENE (60°)18.4 mphPartly Cloudy
2:03 PM82.4 °F77.0 °F84 %29.82 in10.0 miENE (60°)19.6 mph25.3 mphRainLight Rain
2:13 PM82.4 °F77.0 °F84 %29.81 in10.0 miNE (50°)16.1 mphScattered Clouds
2:58 PM83.3 °F76.3 °F79 %29.79 in10.0 miNE (50°)17.3 mph0.00 inMostly Cloudy
3:08 PM82.4 °F77.0 °F84 %29.82 in10.0 miNE (50°)16.1 mphMostly Cloudy
3:18 PM82.4 °F77.0 °F84 %29.82 in10.0 miENE (60°)19.6 mphMostly Cloudy
3:28 PM82.4 °F77.0 °F84 %29.82 in10.0 miNE (50°)18.4 mphMostly Cloudy
3:43 PM82.4 °F77.0 °F84 %29.82 in10.0 miENE (60°)17.3 mphMostly Cloudy
3:48 PM82.4 °F77.0 °F84 %29.82 in10.0 miNE (50°)18.4 mphMostly Cloudy
3:53 PM82.4 °F77.0 °F84 %29.82 in10.0 miENE (60°)17.3 mphMostly Cloudy
3:58 PM82.4 °F76.5 °F82 %29.79 in10.0 miENE (60°)16.1 mphMostly Cloudy
4:03 PM82.4 °F77.0 °F84 %29.82 in10.0 miNE (50°)18.4 mphMostly Cloudy
4:08 PM82.4 °F77.0 °F84 %29.82 in10.0 miENE (60°)17.3 mphMostly Cloudy
4:58 PM82.0 °F76.5 °F83 %29.81 in10.0 miENE (60°)17.3 mphScattered Clouds
5:58 PM81.0 °F76.8 °F87 %29.82 in10.0 miENE (60°)17.3 mphScattered Clouds
6:33 PM80.6 °F77.0 °F89 %29.85 in10.0 miENE (60°)20.7 mph26.5 mphMostly Cloudy
6:34 PM80.6 °F78.8 °F94 %29.85 in10.0 miENE (70°)20.7 mph26.5 mphLight Drizzle
6:44 PM78.8 °F75.2 °F89 %29.85 in9.0 miENE (60°)18.4 mph26.5 mphLight Drizzle
6:47 PM78.8 °F75.2 °F89 %29.85 in10.0 miENE (60°)16.1 mphMostly Cloudy
6:58 PM78.8 °F75.2 °F89 %29.83 in10.0 miENE (60°)16.1 mph0.00 inScattered Clouds
7:58 PM79.7 °F78.4 °F96 %29.84 in10.0 miEast (80°)18.4 mph26.5 mphScattered Clouds
8:58 PM79.5 °F76.5 °F90 %29.86 in10.0 miEast (90°)15.0 mphMostly Cloudy
9:13 PM78.8 °F77.0 °F94 %29.89 in10.0 miENE (60°)17.3 mphMostly Cloudy
9:23 PM78.8 °F77.0 °F94 %29.88 in10.0 miENE (70°)11.5 mphMostly Cloudy
9:38 PM78.8 °F77.0 °F94 %29.88 in10.0 miENE (70°)11.5 mphMostly Cloudy
9:43 PM78.8 °F78.8 °F100 %29.88 in10.0 miENE (70°)10.4 mphScattered Clouds
9:58 PM78.6 °F77.2 °F95 %29.84 in10.0 miENE (70°)12.7 mphScattered Clouds
10:58 PM79.7 °F78.3 °F95 %29.84 in10.0 miENE (70°)12.7 mphScattered Clouds
11:08 PM80.6 °F77.0 °F89 %29.87 in10.0 miENE (70°)13.8 mphMostly Cloudy
11:13 PM80.6 °F77.0 °F89 %29.87 in10.0 miENE (70°)13.8 mph20.7 mphMostly Cloudy
11:18 PM80.6 °F77.0 °F89 %29.87 in10.0 miENE (70°)13.8 mph20.7 mphMostly Cloudy
11:23 PM80.6 °F77.0 °F89 %29.86 in10.0 miENE (70°)16.1 mph20.7 mphScattered Clouds
11:58 PM79.9 °F77.0 °F91 %29.83 in10.0 miENE (70°)16.1 mphScattered Clouds
Hourly data recorded from PGUA, located miles away from Mangilao, Guam







STORIES FROM OUR PARTNERS